#timestamp,LO_Frequency,Hit,StdDev 
1703883615.1,286046996.8,P
1703883616.0,286046996.8,N
1703883635.8,286046997.1,N
1703883655.7,286046997.6,N
1703883675.5,286046995.3,Y
1703883695.3,286046998.8,P
1703883715.2,286046998.6,N
1703883735.0,286046998.8,N
1703883735.9,286046998.8,N
1703883755.8,286046998.9,N
1703883775.6,286046998.3,Y
1703883795.4,286047000.9,P
1703883815.3,286047002.8,N
1703883835.1,286047000.1,N
1703883855.9,286047000.2,N
1703883875.7,286047000.4,N
1703883895.5,286047000.5,N
1703883915.4,286047000.4,N
1703883935.2,286047000.3,N
1703883955.1,286046999.7,N
1703883956.0,286046999.7,N
1703883975.8,286047000.2,N
1703883995.6,286047000.3,N
1703884015.5,286047001.0,N
1703884035.3,286047002.8,Y
1703884055.2,286047000.9,P
1703884075.9,286047001.2,P
1703884095.7,286047000.4,N
1703884115.6,286047002.3,Y
1703884135.4,286047002.4,P
1703884155.3,286047002.3,N
1703884175.1,286047000.4,N
1703884195.8,286046999.8,N
1703884215.7,286047000.1,N
1703884235.5,286047000.5,N
1703884255.4,286047000.2,N
1703884275.2,286047000.9,N
1703884295.0,286046999.7,N
1703884295.9,286046999.7,N
1703884315.8,286047000.3,N
1703884335.6,286047001.0,N
1703884355.4,286047000.6,N
1703884375.3,286047001.0,N
1703884395.1,286047000.8,N
1703884415.9,286046998.3,N
1703884435.7,286047000.8,N
1703884455.5,286047000.0,N
1703884475.4,286046998.6,N
1703884495.2,286046998.2,N
1703884515.0,286046998.3,N
1703884516.0,286046998.3,N
1703884535.8,286046999.0,N
1703884555.6,286046999.6,N
1703884575.5,286046999.1,N
1703884595.3,286046998.3,N
1703884615.2,286046998.1,N
1703884635.9,286047001.0,N
1703884655.7,286046998.1,N
1703884675.6,286046998.6,N
1703884695.4,286046998.3,N
1703884715.3,286046998.8,N
1703884735.1,286046999.4,N
1703884736.0,286046999.4,N
1703884755.8,286046998.9,N
1703884775.7,286047000.7,N
1703884795.5,286047002.7,N
1703884815.3,286047002.1,N
1703884835.2,286047001.5,N
1703884855.0,286047003.8,N
1703884855.9,286047003.8,N
1703884875.8,286047005.6,Y
1703884895.6,286047003.3,P
1703884915.4,286047003.8,N
1703884935.3,286047004.0,N
1703884955.1,286047001.3,N
1703884975.9,286047001.5,N
1703884995.7,286047004.3,N
1703885015.5,286047003.7,N
1703885035.4,286047003.2,N
1703885055.2,286047001.7,N
1703885075.0,286047001.3,N
1703885075.9,286047001.3,N
1703885095.8,286047004.1,N
1703885115.6,286047004.3,Y
1703885135.5,286046999.9,P
1703885155.3,286047002.2,N
1703885175.1,286047002.7,N
1703885195.9,286046999.7,N
1703885215.7,286046999.8,N
1703885235.5,286047002.2,N
1703885255.4,286047000.0,N
1703885275.2,286047000.5,N
1703885295.1,286047002.8,N
1703885296.0,286047002.8,N
1703885315.8,286047002.8,N
1703885335.6,286047000.1,N
1703885355.5,286047000.5,N
1703885375.3,286047002.7,N
1703885395.2,286047000.1,N
1703885415.9,286047002.2,N
1703885435.7,286047003.8,N
1703885455.6,286047003.7,N
1703885475.4,286047003.2,N
1703885495.3,286047005.9,Y
1703885515.1,286047001.7,P
1703885516.0,286047001.7,P
1703885535.8,286047003.9,P
1703885555.7,286047003.9,Y
1703885575.5,286046999.9,P
1703885595.3,286046999.7,N
1703885615.2,286047000.4,N
1703885635.0,286047000.4,N
1703885635.9,286047000.4,N
1703885655.8,286047000.0,N
1703885675.6,286047001.0,N
1703885695.4,286047002.3,N
1703885715.3,286047004.1,Y
1703885735.1,286047002.2,P
1703885755.9,286047000.1,N
1703885775.7,286047000.9,N
1703885795.5,286047000.0,N
1703885815.4,286047000.8,N
1703885835.2,286047000.9,N
1703885855.0,286046998.5,N
1703885855.9,286046998.5,N
1703885875.8,286046998.3,N
1703885895.6,286047001.0,N
1703885915.5,286046999.7,N
1703885935.3,286047000.2,N
1703885955.1,286047002.7,N
1703885975.9,286047002.0,N
1703885995.7,286047002.1,N
1703886015.6,286046999.9,N
1703886035.4,286047002.6,N
1703886055.2,286047004.4,Y
1703886075.1,286047002.2,P
1703886076.0,286047002.2,N
1703886095.8,286047001.8,N
1703886115.7,286047001.8,N
1703886135.5,286047004.4,Y
1703886155.3,286047000.4,P
1703886175.2,286047001.0,N
1703886195.0,286046998.6,N
1703886195.9,286046998.6,N
1703886215.7,286046999.4,N
1703886235.6,286046999.1,N
1703886255.4,286046999.1,N
1703886275.3,286046998.6,N
1703886295.1,286046999.0,N
1703886296.0,286046999.0,N
1703886315.8,286046999.4,N
1703886335.7,286046999.1,N
1703886355.5,286046998.8,N
1703886375.3,286047000.4,N
1703886395.2,286047000.9,N
1703886415.0,286047000.9,N
1703886415.9,286047000.9,N
1703886435.8,286047000.5,N
1703886455.6,286047001.0,N
1703886475.4,286046998.1,N
1703886495.3,286047000.6,N
1703886515.1,286047002.1,N
1703886535.9,286047002.5,N
1703886555.7,286047002.4,N
1703886575.5,286047002.3,N
1703886595.4,286047002.6,N
1703886615.2,286046999.7,N
1703886635.0,286047000.9,N
1703886636.0,286047000.9,N
1703886655.8,286047000.5,N
1703886675.6,286047000.3,N
1703886695.5,286047000.2,N
1703886715.3,286047000.1,N
1703886735.2,286047000.4,N
1703886755.9,286046999.9,N
1703886775.7,286047002.6,N
1703886795.6,286047000.1,N
1703886815.4,286047000.2,N
1703886835.2,286047001.7,N
1703886855.1,286047002.1,N
1703886856.0,286047002.1,N
1703886875.8,286047002.2,N
1703886895.7,286047002.8,N
1703886915.5,286047001.0,N
1703886935.3,286046998.9,N
1703886955.2,286047000.6,N
1703886975.0,286047001.2,N
1703886975.9,286047001.2,N
1703886995.8,286046998.7,N
1703887015.6,286046998.5,N
1703887035.4,286047000.1,N
1703887055.3,286047000.0,N
1703887075.1,286047000.4,N
1703887095.9,286047000.4,N
1703887115.7,286047000.6,N
1703887135.5,286047000.1,N
1703887155.4,286047001.2,N
1703887175.2,286047000.8,N
1703887195.0,286047000.5,N
1703887195.9,286047000.5,N
